TimeEST,TemperatureF,Dew PointF,Humidity,Sea Level PressureIn,VisibilityMPH,Wind Direction,Wind SpeedMPH,Gust SpeedMPH,PrecipitationIn,Events,Conditions,WindDirDegrees,DateUTC
12:15 AM,43.9,38.3,81,30.42,10.0,Calm,Calm,-,N/A,,Clear,0,2012-11-11 05:15:00
12:35 AM,43.5,38.1,81,30.42,10.0,Calm,Calm,-,N/A,,Clear,0,2012-11-11 05:35:00
12:55 AM,42.8,37.4,81,30.42,10.0,Calm,Calm,-,N/A,,Clear,0,2012-11-11 05:55:00
1:15 AM,42.8,37.4,81,30.43,10.0,Calm,Calm,-,N/A,,Clear,0,2012-11-11 06:15:00
1:35 AM,42.8,37.4,81,30.42,10.0,Calm,Calm,-,N/A,,Clear,0,2012-11-11 06:35:00
1:55 AM,42.8,37.4,81,30.42,10.0,Calm,Calm,-,N/A,,Clear,0,2012-11-11 06:55:00
2:15 AM,42.8,37.4,81,30.42,10.0,Calm,Calm,-,N/A,,Clear,0,2012-11-11 07:15:00
2:35 AM,42.6,37.2,81,30.42,10.0,Calm,Calm,-,N/A,,Clear,0,2012-11-11 07:35:00
2:55 AM,41.9,36.5,81,30.42,10.0,Calm,Calm,-,N/A,,Clear,0,2012-11-11 07:55:00
3:15 AM,40.6,35.2,81,30.42,10.0,Calm,Calm,-,N/A,,Clear,0,2012-11-11 08:15:00
3:35 AM,42.8,37.4,81,30.42,10.0,Calm,Calm,-,N/A,,Clear,0,2012-11-11 08:35:00
3:55 AM,42.6,37.2,81,30.43,10.0,Calm,Calm,-,N/A,,Clear,0,2012-11-11 08:55:00
4:15 AM,40.1,34.7,81,30.43,10.0,Calm,Calm,-,N/A,,Clear,0,2012-11-11 09:15:00
4:35 AM,40.1,34.7,81,30.44,10.0,Calm,Calm,-,N/A,,Clear,0,2012-11-11 09:35:00
4:55 AM,40.1,34.7,81,30.44,10.0,Calm,Calm,-,N/A,,Scattered Clouds,0,2012-11-11 09:55:00
5:15 AM,40.1,34.7,81,30.45,10.0,Calm,Calm,-,N/A,,Mostly Cloudy,0,2012-11-11 10:15:00
5:35 AM,40.1,34.7,81,30.45,1.5,Calm,Calm,-,N/A,,Haze,0,2012-11-11 10:35:00
5:55 AM,40.1,34.7,81,30.46,0.2,Calm,Calm,-,N/A,,Haze,0,2012-11-11 10:55:00
6:35 AM,40.1,34.7,81,30.47,0.5,Calm,Calm,-,N/A,,Haze,0,2012-11-11 11:35:00
6:55 AM,39.0,33.6,81,30.48,0.2,Calm,Calm,-,N/A,,Haze,0,2012-11-11 11:55:00
7:15 AM,40.1,34.7,81,30.49,0.2,Calm,Calm,-,N/A,,Haze,0,2012-11-11 12:15:00
7:35 AM,40.5,35.1,81,30.49,0.2,Calm,Calm,-,N/A,,Haze,0,2012-11-11 12:35:00
7:55 AM,43.5,37.9,81,30.50,0.2,Calm,Calm,-,N/A,,Haze,0,2012-11-11 12:55:00
8:35 AM,49.6,44.1,81,30.51,7.0,Calm,Calm,-,N/A,,Clear,0,2012-11-11 13:35:00
8:55 AM,52.7,46.9,81,30.51,10.0,Calm,Calm,-,N/A,,Clear,0,2012-11-11 13:55:00
9:15 AM,54.0,48.2,81,30.51,10.0,Calm,Calm,-,N/A,,Clear,0,2012-11-11 14:15:00
9:35 AM,58.3,50.9,76,30.51,10.0,Calm,Calm,-,N/A,,Clear,0,2012-11-11 14:35:00
9:55 AM,61.3,51.1,69,30.51,10.0,Calm,Calm,-,N/A,,Clear,0,2012-11-11 14:55:00
10:35 AM,64.4,46.2,52,30.51,10.0,Calm,Calm,-,N/A,,Clear,0,2012-11-11 15:35:00
10:55 AM,65.5,45.1,48,30.51,10.0,Calm,Calm,-,N/A,,Clear,0,2012-11-11 15:55:00
11:15 AM,65.8,45.5,48,30.50,10.0,SE,3.5,-,N/A,,Clear,130,2012-11-11 16:15:00
11:35 AM,66.7,49.8,54,30.50,10.0,Calm,Calm,-,N/A,,Clear,0,2012-11-11 16:35:00
11:55 AM,68.2,50.7,54,30.49,10.0,South,4.6,-,N/A,,Clear,190,2012-11-11 16:55:00
12:15 PM,68.0,51.1,55,30.48,10.0,SSE,4.6,-,N/A,,Clear,150,2012-11-11 17:15:00
12:35 PM,68.2,50.9,54,30.47,10.0,SSE,3.5,-,N/A,,Clear,150,2012-11-11 17:35:00
1:15 PM,73.0,51.6,47,30.46,10.0,South,3.5,-,N/A,,Clear,190,2012-11-11 18:15:00
1:35 PM,73.0,51.6,47,30.45,10.0,South,3.5,-,N/A,,Clear,180,2012-11-11 18:35:00
1:55 PM,73.0,45.0,37,30.45,10.0,Calm,Calm,-,N/A,,Clear,0,2012-11-11 18:55:00
2:15 PM,73.0,46.0,38,30.44,10.0,SSW,3.5,-,N/A,,Clear,200,2012-11-11 19:15:00
2:35 PM,73.0,45.7,38,30.44,10.0,SSW,3.5,-,N/A,,Clear,210,2012-11-11 19:35:00
2:55 PM,73.0,46.8,39,30.44,10.0,Calm,Calm,-,N/A,,Clear,0,2012-11-11 19:55:00
3:15 PM,73.0,47.1,40,30.45,10.0,South,3.5,-,N/A,,Clear,170,2012-11-11 20:15:00
3:35 PM,73.0,46.9,39,30.45,10.0,SE,4.6,-,N/A,,Clear,140,2012-11-11 20:35:00
3:55 PM,73.0,50.2,44,30.45,10.0,South,4.6,-,N/A,,Clear,190,2012-11-11 20:55:00
4:15 PM,69.8,52.7,54,30.45,10.0,South,3.5,-,N/A,,Clear,190,2012-11-11 21:15:00
4:35 PM,65.5,53.8,66,30.45,10.0,South,4.6,-,N/A,,Clear,170,2012-11-11 21:35:00
4:55 PM,63.0,53.6,71,30.45,10.0,SE,4.6,-,N/A,,Clear,130,2012-11-11 21:55:00
5:15 PM,63.0,53.1,70,30.46,10.0,ESE,5.8,-,N/A,,Clear,120,2012-11-11 22:15:00
5:35 PM,63.0,53.2,71,30.46,10.0,SE,5.8,-,N/A,,Clear,130,2012-11-11 22:35:00
5:55 PM,63.0,52.9,70,30.46,10.0,SE,5.8,-,N/A,,Clear,130,2012-11-11 22:55:00
6:15 PM,61.2,51.8,71,30.47,10.0,SE,4.6,-,N/A,,Clear,130,2012-11-11 23:15:00
6:35 PM,60.4,51.4,72,30.47,10.0,SE,4.6,-,N/A,,Clear,130,2012-11-11 23:35:00
6:55 PM,60.4,52.2,74,30.47,10.0,SE,4.6,-,N/A,,Clear,140,2012-11-11 23:55:00
7:15 PM,60.4,52.9,76,30.47,10.0,SE,3.5,-,N/A,,Clear,140,2012-11-12 00:15:00
7:35 PM,58.1,51.3,78,30.48,10.0,Calm,Calm,-,N/A,,Clear,0,2012-11-12 00:35:00
7:55 PM,58.1,52.0,80,30.48,10.0,Calm,Calm,-,N/A,,Clear,0,2012-11-12 00:55:00
8:15 PM,58.1,52.0,80,30.48,10.0,Calm,Calm,-,N/A,,Clear,0,2012-11-12 01:15:00
8:35 PM,55.4,49.3,80,30.48,10.0,Calm,Calm,-,N/A,,Clear,0,2012-11-12 01:35:00
8:55 PM,52.7,46.9,81,30.49,10.0,Calm,Calm,-,N/A,,Clear,0,2012-11-12 01:55:00
9:15 PM,52.7,46.9,81,30.49,10.0,Calm,Calm,-,N/A,,Clear,0,2012-11-12 02:15:00
9:35 PM,52.7,46.9,81,30.49,10.0,Calm,Calm,-,N/A,,Clear,0,2012-11-12 02:35:00
9:55 PM,52.7,46.9,81,30.49,7.0,Calm,Calm,-,N/A,,Clear,0,2012-11-12 02:55:00
10:15 PM,52.7,46.9,81,30.48,10.0,Calm,Calm,-,N/A,,Clear,0,2012-11-12 03:15:00
10:35 PM,52.7,46.9,81,30.48,5.0,Calm,Calm,-,N/A,,Haze,0,2012-11-12 03:35:00
10:55 PM,50.2,44.6,81,30.47,7.0,Calm,Calm,-,N/A,,Clear,0,2012-11-12 03:55:00
11:15 PM,50.2,44.6,81,30.47,7.0,Calm,Calm,-,N/A,,Clear,0,2012-11-12 04:15:00
11:35 PM,50.2,44.6,81,30.47,7.0,Calm,Calm,-,N/A,,Clear,0,2012-11-12 04:35:00
11:55 PM,50.2,44.6,81,30.47,10.0,East,3.5,-,N/A,,Clear,90,2012-11-12 04:55:00